Find FUSION 1

NORAD ID: 62674 Int'l Des: NNA 2025-009 Owner: SEIREN Country: J operational
LEOCIRCULARRETROGRADESSO

当前视图

正在加载3D地球...

关于 FUSION 1

正在加载描述...

即将过境

Passes for default location (London). Set your location on the main map for personalized predictions.

高度历史

Loading altitude history...

两行轨道根数

1 62674U 25009BT 26149.74184483 .00015402 00000-0 53694-3 0 9994
2 62674 97.4063 232.2458 0005039 35.9659 324.1919 15.29717651133747
Epoch: May 29, 2026 • Age: 21 hours

当前状态

高度 481.6 km
速度 7.63 km/s
星下点 24.91°N, 54.89°W
发射日期 Jan 14, 2025
运行时间 1.3 years
类型 other

技术详情

分类 Payload
质量 5.00 kg
干质量 5.00 kg
总质量 5.00 kg
长度 0.30 m
直径 0.10 m
跨度 0.30 m
形状 Box+2 pan
制造商 SEIREN
平台类型 Cubesat 3U
阶段状态 In Orbit
所有者/国家 SEIREN/J

Most Searched